Simultaneous Nadir Overpasses (SNOs) Predictions

Prediction of SNOs between GOES-16 and NOAA-20 Satellite Orbit:

Table of predicted SNOs for the next 14.0 days since TLE Epoch: 12/11/2021
Index Date Time (GOES-16) GOES-16 Lat,Lon NOAA-20 Lat,Lon Distance(km) Time Diff (sec)
1 12/11/2021 06:35:25 -0.01, -75.19 0.60, -77.95 314.81 80
2 12/12/2021 06:19:19 -0.01, -75.20 -0.41, -73.42 203.03 80
3 12/13/2021 18:38:34 0.01, -75.22 -0.75, -78.72 398.62 80
4 12/14/2021 18:22:29 0.01, -75.23 0.27, -74.18 119.77 80
5 12/16/2021 06:44:15 -0.01, -75.24 0.91, -79.44 478.16 80
6 12/17/2021 06:25:30 -0.00, -75.26 -0.10, -74.91 40.40 80
7 12/19/2021 18:25:59 -0.00, -75.30 -0.09, -75.66 41.97 80
8 12/20/2021 18:09:53 -0.01, -75.31 0.93, -71.13 476.85 80
9 12/22/2021 06:31:39 0.01, -75.34 0.25, -76.39 120.14 80
10 12/23/2021 06:10:14 0.01, -75.36 -0.77, -71.85 398.83 80
11 12/24/2021 18:32:09 -0.01, -75.39 -0.39, -77.16 201.23 80
